, MS

(GMT )
West Delta

Weather History for KDLP - January, 2014

Change the Weather History Date:

Friday, January 24, 2014

  Actual Average Record
Temperature  
Mean Temperature 46 °F -  
Max Temperature 51 °F - - ()
Min Temperature 41 °F - - ()
Degree Days  
Heating Degree Days 19    
Moisture  
Dew Point 36 °F    
Average Humidity 71    
Maximum Humidity 93    
Minimum Humidity 47    
Precipitation  
Precipitation 0.00 in - - ()
Sea Level Pressure  
Sea Level Pressure 30.44 in    
Wind  
Wind Speed 15 mph (NE)    
Max Wind Speed 29 mph    
Max Gust Speed 43 mph    
Visibility 8 miles    
Events      
T = Trace of Precipitation, MM = Missing Value Source: NWS Daily Summary

Daily Weather History Graph

Daily Weather History Graph

Search for Another Location

Airport or City:

Trip Planner

Search our weather history database for the weather conditions in past years. The results will help you decide how hot, cold, wet, or windy it might be!

Date:

Astronomy

Jan. 24, 2014 Rise Set
Actual Time 6:50 AM CST 5:30 PM CST
Civil Twilight 6:25 AM CST 5:55 PM CST
Nautical Twilight 5:56 AM CST 6:24 PM CST
Astronomical Twilight 5:28 AM CST 6:52 PM CST
Moon 12:24 AM CST (1/24) 11:44 AM CST (1/24)
Length of Visible Light 11h 29m
Length of Day
10h 39m
Last Quarter, 44% of the Moon is Illuminated
Jan 24
Last Quarter
Jan 30
New
Feb 6
First Quarter
Feb 14
Full
Feb 22
Last Quarter

Hourly Weather History & Observations

Time (CST) Temp. Windchill Dew Point Humidity Pressure Visibility Wind Dir Wind Speed Gust Speed Precip Events Conditions
12:15 AM 51.8 °F - 35.6 °F 54% 30.46 in 10.0 mi ENE 11.5 mph 26.5 mph N/A   Overcast
12:35 AM 51.8 °F - 33.8 °F 50% 30.45 in 10.0 mi NE 19.6 mph 31.1 mph N/A   Overcast
12:55 AM 51.8 °F - 32.0 °F 47% 30.47 in 10.0 mi ENE 15.0 mph 28.8 mph N/A   Overcast
1:15 AM 50.0 °F - 30.2 °F 47% 30.46 in 10.0 mi NE 19.6 mph 39.1 mph N/A   Overcast
1:35 AM 48.2 °F - 32.0 °F 54% 30.47 in 10.0 mi NE 24.2 mph 41.4 mph N/A   Overcast
1:55 AM 48.2 °F - 33.8 °F 58% 30.47 in 10.0 mi NNE 28.8 mph 40.3 mph N/A   Overcast
2:15 AM 46.4 °F 39.2 °F 33.8 °F 62% 30.48 in 10.0 mi NE 18.4 mph 39.1 mph N/A   Mostly Cloudy
2:35 AM 46.4 °F 39.5 °F 35.6 °F 66% 30.48 in 10.0 mi NE 17.3 mph 34.5 mph N/A   Overcast
2:55 AM 46.4 °F 39.8 °F 33.8 °F 62% 30.48 in 10.0 mi NE 16.1 mph 28.8 mph N/A   Overcast
3:15 AM 46.4 °F 38.7 °F 32.0 °F 57% 30.49 in 10.0 mi NE 20.7 mph 42.6 mph N/A   Overcast
3:35 AM 44.6 °F 37.4 °F 30.2 °F 57% 30.49 in 10.0 mi ENE 16.1 mph 32.2 mph N/A   Overcast
3:55 AM 44.6 °F 37.4 °F 32.0 °F 61% 30.49 in 10.0 mi NE 16.1 mph 33.4 mph N/A   Overcast
4:15 AM 46.4 °F 40.4 °F 32.0 °F 57% 30.50 in 10.0 mi ENE 13.8 mph 25.3 mph N/A   Overcast
4:35 AM 46.4 °F 40.1 °F 32.0 °F 57% 30.50 in 10.0 mi ENE 15.0 mph 31.1 mph N/A   Overcast
4:55 AM 44.6 °F 37.2 °F 32.0 °F 61% 30.51 in 10.0 mi ENE 17.3 mph 25.3 mph N/A   Overcast
5:15 AM 44.6 °F 38.1 °F 33.8 °F 66% 30.50 in 10.0 mi ENE 13.8 mph 28.8 mph N/A   Overcast
5:35 AM 44.6 °F 37.2 °F 33.8 °F 66% 30.49 in 10.0 mi ENE 17.3 mph 31.1 mph N/A   Overcast
5:55 AM 44.6 °F 36.1 °F 33.8 °F 66% 30.49 in 10.0 mi ENE 21.9 mph 34.5 mph N/A   Overcast
6:15 AM 44.6 °F 38.8 °F 35.6 °F 71% 30.51 in 10.0 mi ENE 11.5 mph 25.3 mph N/A   Overcast
6:35 AM 44.6 °F 37.8 °F 35.6 °F 71% 30.49 in 10.0 mi ENE 15.0 mph 26.5 mph N/A   Overcast
6:55 AM 46.4 °F 39.8 °F 35.6 °F 66% 30.51 in 10.0 mi ENE 16.1 mph 32.2 mph N/A   Overcast
7:15 AM 46.4 °F 40.7 °F 35.6 °F 66% 30.51 in 10.0 mi ENE 12.7 mph 23.0 mph N/A   Overcast
7:35 AM 46.4 °F 41.1 °F 35.6 °F 66% 30.51 in 10.0 mi ENE 11.5 mph 26.5 mph N/A   Overcast
7:55 AM 46.4 °F 40.1 °F 35.6 °F 66% 30.51 in 10.0 mi ENE 15.0 mph 25.3 mph N/A   Overcast
8:15 AM 46.4 °F 41.1 °F 35.6 °F 66% 30.52 in 10.0 mi ENE 11.5 mph 25.3 mph N/A   Overcast
8:35 AM 46.4 °F 39.5 °F 35.6 °F 66% 30.50 in 10.0 mi ENE 17.3 mph - N/A   Overcast
8:55 AM 46.4 °F 41.1 °F 35.6 °F 66% 30.52 in 10.0 mi NE 11.5 mph 25.3 mph N/A   Overcast
9:15 AM 46.4 °F 40.1 °F 35.6 °F 66% 30.50 in 10.0 mi ENE 15.0 mph 23.0 mph N/A   Overcast
9:35 AM 46.4 °F 40.4 °F 35.6 °F 66% 30.51 in 10.0 mi ENE 13.8 mph 25.3 mph N/A   Overcast
9:55 AM 46.4 °F 41.5 °F 35.6 °F 66% 30.53 in 10.0 mi ENE 10.4 mph 21.9 mph N/A   Overcast
10:15 AM 46.4 °F 41.1 °F 37.4 °F 71% 30.53 in 10.0 mi NE 11.5 mph 21.9 mph N/A   Overcast
10:35 AM 46.4 °F 40.7 °F 35.6 °F 66% 30.53 in 10.0 mi NE 12.7 mph 23.0 mph N/A   Overcast
10:55 AM 46.4 °F 41.1 °F 35.6 °F 66% 30.52 in 10.0 mi NE 11.5 mph 25.3 mph N/A   Overcast
11:15 AM 46.4 °F 41.1 °F 35.6 °F 66% 30.51 in 10.0 mi NE 11.5 mph 23.0 mph N/A   Overcast
11:35 AM 46.4 °F 41.5 °F 35.6 °F 66% 30.49 in 10.0 mi NE 10.4 mph 31.1 mph N/A   Overcast
11:55 AM 46.4 °F 40.1 °F 33.8 °F 62% 30.48 in 10.0 mi ENE 15.0 mph 21.9 mph N/A   Overcast
12:15 PM 46.4 °F 41.5 °F 35.6 °F 66% 30.46 in 10.0 mi ENE 10.4 mph 21.9 mph N/A   Overcast
12:35 PM 46.4 °F - 35.6 °F 66% 30.45 in 10.0 mi North - - N/A   Overcast
12:55 PM 46.4 °F 41.9 °F 35.6 °F 66% 30.43 in 10.0 mi ENE 9.2 mph 23.0 mph N/A   Overcast
1:15 PM 48.2 °F - 35.6 °F 62% 30.42 in 10.0 mi NE 10.4 mph 17.3 mph N/A   Overcast
1:35 PM 48.2 °F - 35.6 °F 62% 30.41 in 10.0 mi ENE 10.4 mph 20.7 mph N/A   Overcast
1:55 PM 48.2 °F - 35.6 °F 62% 30.40 in 10.0 mi ENE 10.4 mph 19.6 mph N/A   Overcast
2:15 PM 46.4 °F 42.4 °F 35.6 °F 66% 30.40 in 10.0 mi NE 8.1 mph 18.4 mph N/A   Overcast
2:35 PM 46.4 °F 41.9 °F 35.6 °F 66% 30.39 in 10.0 mi ENE 9.2 mph 24.2 mph N/A   Overcast
2:55 PM 46.4 °F 39.2 °F 35.6 °F 66% 30.38 in 8.0 mi NNE 18.4 mph 28.8 mph N/A   Overcast
3:15 PM 46.4 °F 40.1 °F 37.4 °F 71% 30.37 in 6.0 mi NE 15.0 mph 28.8 mph N/A   Haze
3:35 PM 46.4 °F 40.7 °F 37.4 °F 71% 30.38 in 9.0 mi NE 12.7 mph 26.5 mph N/A   Overcast
3:55 PM 46.4 °F 41.1 °F 37.4 °F 71% 30.38 in 5.0 mi NE 11.5 mph 26.5 mph N/A   Haze
4:15 PM 44.6 °F 36.9 °F 37.4 °F 76% 30.38 in 7.0 mi NE 18.4 mph 33.4 mph N/A   Overcast
4:35 PM 44.6 °F 36.9 °F 37.4 °F 76% 30.37 in 8.0 mi NNE 18.4 mph 29.9 mph N/A   Overcast
4:55 PM 42.8 °F 34.8 °F 37.4 °F 81% 30.38 in 9.0 mi NE 17.3 mph 33.4 mph N/A   Overcast
5:15 PM 42.8 °F 34.3 °F 35.6 °F 76% 30.37 in 7.0 mi NE 19.6 mph 35.7 mph N/A   Overcast
5:35 PM 42.8 °F 35.1 °F 37.4 °F 81% 30.37 in 3.0 mi NE 16.1 mph 31.1 mph N/A   Haze
5:55 PM 41.0 °F 33.1 °F 37.4 °F 87% 30.38 in 2.0 mi NE 15.0 mph 28.8 mph N/A   Overcast
6:15 PM 41.0 °F 32.5 °F 37.4 °F 87% 30.37 in 3.0 mi NE 17.3 mph 31.1 mph N/A   Overcast
6:35 PM 41.0 °F 33.1 °F 39.2 °F 93% 30.38 in 4.0 mi NE 15.0 mph 31.1 mph N/A   Overcast
6:55 PM 42.8 °F 37.0 °F 39.2 °F 87% 30.38 in 7.0 mi NE 10.4 mph 26.5 mph N/A   Overcast
7:15 PM 41.0 °F 34.3 °F 39.2 °F 93% 30.38 in 4.0 mi ENE 11.5 mph 26.5 mph N/A   Overcast
7:35 PM 42.8 °F 36.6 °F 39.2 °F 87% 30.37 in 6.0 mi NE 11.5 mph 21.9 mph N/A   Haze
7:55 PM 42.8 °F 36.2 °F 39.2 °F 87% 30.37 in 9.0 mi NE 12.7 mph 19.6 mph N/A   Overcast
8:15 PM 42.8 °F 35.8 °F 39.2 °F 87% 30.37 in 5.0 mi NNE 13.8 mph 19.6 mph N/A   Haze
8:35 PM 42.8 °F 37.5 °F 39.2 °F 87% 30.37 in 5.0 mi ENE 9.2 mph 18.4 mph N/A   Overcast
8:55 PM 42.8 °F 37.5 °F 39.2 °F 87% 30.37 in 6.0 mi NE 9.2 mph 19.6 mph N/A   Overcast
9:15 PM 42.8 °F 36.6 °F 39.2 °F 87% 30.36 in 5.0 mi NE 11.5 mph 23.0 mph N/A   Overcast
9:35 PM 41.0 °F 31.6 °F 37.4 °F 87% 30.37 in 4.0 mi NNE 20.7 mph - N/A   Overcast
9:55 PM 41.0 °F 32.2 °F 39.2 °F 93% 30.36 in 2.0 mi NNE 18.4 mph 25.3 mph N/A   Overcast
10:15 PM 42.8 °F 38.0 °F 41.0 °F 93% 30.35 in 4.0 mi ENE 8.1 mph 13.8 mph N/A   Overcast
10:35 PM 42.8 °F 36.6 °F 41.0 °F 93% 30.36 in 7.0 mi NNE 11.5 mph 19.6 mph N/A   Overcast
10:55 PM 42.8 °F 37.5 °F 41.0 °F 93% 30.35 in 4.0 mi NE 9.2 mph 16.1 mph N/A   Overcast
11:15 PM 44.6 °F 40.7 °F 41.0 °F 87% 30.34 in 7.0 mi Variable 6.9 mph 15.0 mph N/A   Overcast
11:35 PM 42.8 °F 38.6 °F 41.0 °F 93% 30.33 in 3.0 mi Variable 6.9 mph 17.3 mph N/A   Overcast
11:55 PM 44.6 °F 41.4 °F 42.8 °F 93% 30.31 in 6.0 mi Variable 5.8 mph 15.0 mph N/A   Overcast